Regional Weather Roundup
Issued by NWS

Home | Current Version | Previous Version | Text Only | Print | Product List | Glossary On
Versions: 1 2 3 4 5 6 7 8 9 10 11 12 13 14 15 16 17 18 19 20 21 22 23 24 25 26 27 28 29 30 31 32 33 34 35 36 37 38 39 40 41 42 43 44 45 46 47 48 49 50
000
ASUS44 KMEG 251200
RWRTN
TENNESSEE HOURLY STATE WEATHER ROUNDUP
NATIONAL WEATHER SERVICE MEMPHIS TN
700 AM CDT WED MAY 25 2016

TNZ002-004-019-021-049-052-054-088>092-251300-
WEST TENNESSEE

CITY           SKY/WX    TMP DP  RH WIND       PRES   REMARKS
MEMPHIS INTL   CLOUDY    69  62  78 S7        30.10R
NWS MEMPHIS      N/A     65 N/A N/A MISG        N/A
JACKSON        PTSUNNY   66  64  93 S3        30.12R
DYERSBURG      MOSUNNY   66  64  94 CALM      30.11R
UNION CITY     SUNNY     66  66 100 SE5       30.10R
PARIS          CLOUDY    64  63  94 CALM      30.13R
LEXINGTON      CLOUDY    64  63  94 CALM      30.12R
$$

TNZ008-025-027-028-033-062-065-066-251300-
NORTH MIDDLE TENNESSEE

CITY           SKY/WX    TMP DP  RH WIND       PRES   REMARKS
NASHVILLE      CLOUDY    68  59  73 S6        30.14R
CLARKSVILLE    CLOUDY    69  63  81 S8        30.11R
COOKEVILLE     MOSUNNY   66  57  72 S3        30.17R
CROSSVILLE     MOSUNNY   70  54  56 CALM      30.23R
$$

TNZ061-075-076-078-094-096-097-251300-
SOUTH MIDDLE TENNESSEE

CITY           SKY/WX    TMP DP  RH WIND       PRES   REMARKS
TULLAHOMA      PTSUNNY   63  63 100 CALM      30.20R
WINCHESTER     SUNNY     64  57  77 E3        30.19R
MCMINNVILLE    MOSUNNY   63  63 100 CALM      30.18R
COLUMBIA       CLOUDY    70  70 100 S5        30.14R
SHELBYVILLE    MOSUNNY   70  59  68 S6        30.18R
$$

TNZ017-018-042-046-047-251300-
NORTHEAST TENNESSEE

CITY           SKY/WX    TMP DP  RH WIND       PRES   REMARKS
TRI CITIES     MOSUNNY   56  52  86 CALM      30.26R
$$

TNZ012-013-036-069-073-074-251300-
CENTRAL EAST TENNESSEE

CITY           SKY/WX    TMP DP  RH WIND       PRES   REMARKS
KNOXVILLE      NOT AVBL
OAK RIDGE      MOSUNNY   61  57  87 CALM      30.23R
GATLINBURG     SUNNY     61  52  72 CALM      30.21R
$$

TNZ083-085-099-251300-
SOUTHEAST TENNESSEE

CITY           SKY/WX    TMP DP  RH WIND       PRES   REMARKS
CHATTANOOGA    PTSUNNY   65  58  78 CALM      30.20R
$$

SKY/WX REPORTED AS FAIR MEANS FEW OR NO CLOUDS BELOW
12 THOUSAND FEET.





USA.gov is the U.S. government's official web portal to all federal, state and local government web resources and services.